Date String (YYYY-MM-DD hh:mm:ss) UTC,Instrument flags,absolute air pressure of the measurement (hPa),sample flow rate (lpm),inlet stack bypass flow (lpm),air temperature of the measurement (°C),ambient temperature measured by the external sensor (°C),aerosol sample conditioner tube jacket temperature (°C),OPC LED temperature (°C),internal box temperature (°C),relative humidity of the measurement (%),span deviation,mass concentration of particles derived from Lorenz-Mie calculation of OPC scattering (μg/m³),mass concentration of particles derived from Lorenz-Mie calculation of OPC scattering (μg/m³),mass concentration of particles derived from Lorenz-Mie calculation of OPC scattering (μg/m³)
DateTimeUTC,F1_M11,P_M11,Q1_M11,Q2_M11,T1_M11,T2_M11,T3_M11,T4_M11,T5_M11,U1_M11,ZSPAN_M11,X2_M11,X0_M11,X1_M11
2023-08-27 07:00:00,SystemResetWarning,0836.1,5.00,000.00,030.2,027.0,000.0,038.3,030.5,34.0,0001.3,0008.12,0010.96,0007.62
2023-08-27 07:01:00,SystemResetWarning,0836.1,5.00,000.00,030.2,027.1,000.0,038.3,030.6,34.0,0001.5,0008.07,0010.85,0007.61
2023-08-27 07:02:00,SystemResetWarning,0836.1,5.00,000.00,030.2,027.2,000.0,038.4,030.6,34.0,0001.4,0008.06,0010.75,0007.61
2023-08-27 07:03:00,SystemResetWarning,0836.1,5.00,000.00,030.2,027.3,000.0,038.4,030.6,34.0,0001.3,0008.06,0010.79,0007.61
2023-08-27 07:04:00,SystemResetWarning,0836.1,5.01,000.00,030.2,027.4,000.0,038.4,030.7,34.0,0000.8,0008.04,0011.13,0007.61
2023-08-27 07:05:00,SystemResetWarning,0836.2,5.01,000.00,030.2,027.5,000.0,038.4,030.7,34.1,0000.8,0008.04,0011.13,0007.62
2023-08-27 07:06:00,SystemResetWarning,0836.2,5.01,000.00,030.2,027.5,000.0,038.5,030.7,34.2,0000.6,0008.05,0011.08,0007.65
2023-08-27 07:07:00,SystemResetWarning,0836.2,4.99,000.00,030.1,027.6,000.0,038.5,030.7,34.3,-000.1,0008.06,0011.14,0007.66
2023-08-27 07:08:00,SystemResetWarning,0836.2,4.99,000.00,030.1,026.8,000.0,038.4,030.6,34.2,-000.4,0008.09,0011.22,0007.68
2023-08-27 07:09:00,SystemResetWarning,0836.2,5.00,000.00,030.1,025.1,000.0,038.2,030.3,34.1,-000.2,0008.12,0011.25,0007.70
2023-08-27 07:10:00,SystemResetWarning,0836.2,5.01,000.00,030.0,024.6,000.0,038.1,030.2,34.2,-000.1,0008.13,0011.25,0007.70
2023-08-27 07:11:00,SystemResetWarning,0836.1,5.01,000.00,029.8,024.8,000.0,038.1,030.0,34.7,-000.4,0008.12,0011.20,0007.70
2023-08-27 07:12:00,SystemResetWarning,0836.1,4.98,000.00,029.7,025.1,000.0,038.2,030.0,35.0,-000.3,0008.14,0011.25,0007.69
2023-08-27 07:13:00,SystemResetWarning,0836.1,5.04,000.00,029.7,025.5,000.0,038.2,030.1,34.9,-000.1,0008.13,0011.30,0007.68
2023-08-27 07:14:00,SystemResetWarning,0836.1,4.97,000.00,029.9,025.9,000.0,038.1,030.3,34.4,0000.0,0008.11,0011.20,0007.68
2023-08-27 07:15:00,SystemResetWarning,0836.1,5.01,000.00,029.9,026.2,000.0,038.1,030.4,34.1,0000.5,0008.12,0010.80,0007.68
2023-08-27 07:16:00,SystemResetWarning,0836.1,5.02,000.00,030.0,026.4,000.0,038.1,030.4,33.9,0000.7,0008.12,0010.93,0007.68
2023-08-27 07:17:00,SystemResetWarning,0836.1,5.00,000.00,030.0,026.7,000.0,038.2,030.4,33.9,0001.3,0008.11,0011.21,0007.66
2023-08-27 07:18:00,SystemResetWarning,0836.1,4.99,000.00,030.0,026.8,000.0,038.2,030.4,33.8,0001.4,0008.09,0011.16,0007.65
2023-08-27 07:19:00,SystemResetWarning,0836.1,5.00,000.00,030.0,027.0,000.0,038.2,030.5,33.8,0001.2,0008.07,0011.11,0007.63
2023-08-27 07:20:00,SystemResetWarning,0836.1,5.00,000.00,030.0,027.1,000.0,038.2,030.5,34.0,0001.1,0008.03,0011.07,0007.62
2023-08-27 07:21:00,SystemResetWarning,0836.1,5.00,000.00,030.0,027.2,000.0,038.2,030.5,34.2,0001.4,0007.99,0011.02,0007.61
2023-08-27 07:22:00,SystemResetWarning,0836.2,4.99,000.00,030.0,027.3,000.0,038.3,030.6,34.0,0001.3,0007.97,0011.21,0007.61
2023-08-27 07:23:00,SystemResetWarning,0836.1,4.99,000.00,030.0,027.4,000.0,038.3,030.6,33.9,0001.0,0007.94,0011.15,0007.60
2023-08-27 07:24:00,SystemResetWarning,0836.1,5.00,000.00,030.0,027.5,000.0,038.3,030.6,33.7,0000.8,0007.94,0011.10,0007.60
2023-08-27 07:25:00,SystemResetWarning,0836.2,5.00,000.00,030.0,027.6,000.0,038.3,030.7,33.8,0000.7,0007.97,0011.14,0007.59
2023-08-27 07:26:00,SystemResetWarning,0836.2,5.00,000.00,029.9,027.6,000.0,038.3,030.7,34.3,0000.3,0007.98,0011.20,0007.59
2023-08-27 07:27:00,SystemResetWarning,0836.1,5.00,000.00,029.9,027.1,000.0,038.3,030.6,34.1,0000.0,0007.99,0011.14,0007.58
2023-08-27 07:28:00,SystemResetWarning,0836.1,5.00,000.00,029.9,025.5,000.0,038.1,030.3,33.6,-000.2,0007.96,0010.76,0007.58
2023-08-27 07:29:00,SystemResetWarning,0836.1,5.00,000.00,029.8,024.7,000.0,038.0,030.1,33.6,-000.3,0007.93,0010.72,0007.56
2023-08-27 07:30:00,SystemResetWarning,0836.1,5.01,000.00,029.6,024.7,000.0,038.0,029.8,33.9,-000.2,0007.89,0010.67,0007.55
2023-08-27 07:31:00,SystemResetWarning,0836.1,5.01,000.00,029.5,025.0,000.0,038.0,029.9,34.5,0000.2,0007.87,0010.85,0007.52
2023-08-27 07:32:00,SystemResetWarning,0836.1,4.99,000.00,029.4,025.4,000.0,038.0,030.0,34.4,0000.4,0007.86,0011.37,0007.50
2023-08-27 07:33:00,SystemResetWarning,0836.1,5.00,000.00,029.4,025.8,000.0,038.0,030.1,34.3,0000.2,0007.85,0011.16,0007.48
2023-08-27 07:34:00,SystemResetWarning,0836.1,5.00,000.00,029.3,026.1,000.0,038.0,030.1,34.4,0000.2,0007.83,0011.09,0007.46
2023-08-27 07:35:00,SystemResetWarning,0836.1,4.99,000.00,029.3,026.4,000.0,037.9,030.2,34.6,0000.4,0007.81,0011.04,0007.45
2023-08-27 07:36:00,SystemResetWarning,0836.1,5.01,000.00,029.3,026.6,000.0,037.9,030.2,34.7,0000.3,0007.77,0010.99,0007.44
2023-08-27 07:37:00,SystemResetWarning,0836.1,5.00,000.00,029.3,026.8,000.0,037.9,030.3,34.6,0000.5,0007.77,0011.01,0007.43
2023-08-27 07:38:00,SystemResetWarning,0836.1,5.00,000.00,029.3,026.9,000.0,037.9,030.3,34.6,0000.8,0007.76,0010.92,0007.43
2023-08-27 07:39:00,SystemResetWarning,0836.1,5.00,000.00,029.3,027.1,000.0,037.9,030.3,34.6,0000.7,0007.74,0010.96,0007.42
2023-08-27 07:40:00,SystemResetWarning,0836.1,5.00,000.00,029.3,027.2,000.0,037.9,030.4,34.5,0000.8,0007.72,0010.89,0007.40
2023-08-27 07:41:00,SystemResetWarning,0836.1,5.00,000.00,029.3,027.3,000.0,037.9,030.4,34.5,0001.0,0007.74,0010.89,0007.40
2023-08-27 07:42:00,SystemResetWarning,0836.1,5.00,000.00,029.3,027.4,000.0,037.9,030.4,34.6,0000.7,0007.74,0010.96,0007.40
2023-08-27 07:43:00,SystemResetWarning,0836.1,5.00,000.00,029.3,027.4,000.0,037.9,030.5,34.6,0000.6,0007.79,0010.41,0007.43
2023-08-27 07:44:00,SystemResetWarning,0836.1,5.00,000.00,029.3,027.5,000.0,037.9,030.5,34.5,0000.4,0007.84,0010.55,0007.46
2023-08-27 07:45:00,SystemResetWarning,0836.1,5.00,000.00,029.3,027.5,000.0,037.9,030.5,34.6,0000.5,0007.85,0010.57,0007.48
2023-08-27 07:46:00,SystemResetWarning,0836.0,4.98,000.00,029.3,026.4,000.0,037.7,030.4,34.6,0000.4,0007.88,0010.64,0007.49
2023-08-27 07:47:00,SystemResetWarning,0835.9,5.00,000.00,029.3,024.9,000.0,037.6,030.2,34.6,0000.5,0007.90,0011.01,0007.49
2023-08-27 07:48:00,SystemResetWarning,0835.9,5.01,000.00,029.1,024.5,000.0,037.5,029.8,34.8,0000.6,0007.84,0011.10,0007.47
2023-08-27 07:49:00,SystemResetWarning,0835.9,4.99,000.00,029.0,024.7,000.0,037.5,029.7,35.2,0000.7,0007.82,0011.07,0007.46
2023-08-27 07:50:00,SystemResetWarning,0835.9,5.02,000.00,029.1,025.0,000.0,037.6,029.9,35.2,0000.9,0007.81,0011.01,0007.44
2023-08-27 07:51:00,SystemResetWarning,0835.9,4.98,000.00,029.3,025.4,000.0,037.6,030.1,34.7,0001.0,0007.83,0011.20,0007.44
2023-08-27 07:52:00,SystemResetWarning,0835.9,4.99,000.00,029.5,025.8,000.0,037.6,030.2,34.2,0000.8,0007.85,0011.54,0007.44
2023-08-27 07:53:00,SystemResetWarning,0835.9,5.01,000.00,029.6,026.1,000.0,037.6,030.2,33.9,0001.1,0007.84,0011.43,0007.45
2023-08-27 07:54:00,SystemResetWarning,0835.9,5.01,000.00,029.6,026.4,000.0,037.7,030.2,33.8,0001.1,0007.83,0011.35,0007.44
2023-08-27 07:55:00,SystemResetWarning,0835.9,5.00,000.00,029.7,026.6,000.0,037.7,030.3,33.7,0001.1,0007.81,0011.64,0007.43
2023-08-27 07:56:00,SystemResetWarning,0835.9,5.00,000.00,029.7,026.8,000.0,037.8,030.3,33.7,0001.3,0007.83,0012.06,0007.42
2023-08-27 07:57:00,SystemResetWarning,0835.9,5.00,000.00,029.7,026.9,000.0,037.8,030.3,33.8,0001.1,0007.81,0012.37,0007.41
2023-08-27 07:58:00,SystemResetWarning,0835.9,5.00,000.00,029.7,027.1,000.0,037.9,030.4,33.7,0001.0,0007.85,0012.88,0007.42
2023-08-27 07:59:00,SystemResetWarning,0835.9,5.00,000.00,029.7,027.2,000.0,037.9,030.4,33.6,0000.6,0007.86,0013.07,0007.41
